Time,TemperatureF,DewpointF,PressureIn,WindDirection,WindDirectionDegrees,WindSpeedMPH,WindSpeedGustMPH,Humidity,HourlyPrecipIn,Conditions,Clouds,dailyrainin,SoftwareType,DateUTC
2013-05-15 01:45:00,40.1,30.4,30.01,SW,228,0.0,0.0,68,0.00,,CLR,0.00,VWS V13.00,2013-05-15 05:45:00,
2013-05-15 01:50:00,40.5,30.8,30.01,SW,228,2.2,2.2,68,0.00,,CLR,0.00,VWS V13.00,2013-05-15 05:50:00,
2013-05-15 01:55:00,40.6,31.3,30.01,SW,228,2.2,2.2,69,0.00,,CLR,0.00,VWS V13.00,2013-05-15 05:55:00,
2013-05-15 02:00:00,40.6,31.3,30.01,SW,228,0.0,2.2,69,0.00,,CLR,0.00,VWS V13.00,2013-05-15 06:00:00,
2013-05-15 02:05:00,40.6,31.3,30.01,SW,228,0.0,0.0,69,0.00,,CLR,0.00,VWS V13.00,2013-05-15 06:05:00,
2013-05-15 02:10:00,41.0,31.6,30.01,SW,228,0.0,0.0,69,0.00,,CLR,0.00,VWS V13.00,2013-05-15 06:10:00,
2013-05-15 02:15:00,41.0,31.6,30.01,SW,228,0.0,0.0,69,0.00,,CLR,0.00,VWS V13.00,2013-05-15 06:15:00,
2013-05-15 02:20:00,41.0,31.6,30.01,SW,228,0.0,0.0,69,0.00,,CLR,0.00,VWS V13.00,2013-05-15 06:20:00,
2013-05-15 02:25:00,41.2,31.4,30.01,SW,228,0.0,0.0,68,0.00,,CLR,0.00,VWS V13.00,2013-05-15 06:25:00,
2013-05-15 02:30:00,41.4,31.6,30.01,SW,228,0.0,0.0,68,0.00,,CLR,0.00,VWS V13.00,2013-05-15 06:30:00,
2013-05-15 02:35:00,41.5,31.8,30.01,SW,228,0.0,0.0,68,0.00,,BKN110,0.00,VWS V13.00,2013-05-15 06:35:00,
2013-05-15 02:40:00,41.7,32.3,30.01,SW,228,0.0,0.0,69,0.00,,BKN110,0.00,VWS V13.00,2013-05-15 06:40:00,
2013-05-15 02:45:00,41.9,32.5,30.01,SW,228,0.0,0.0,69,0.00,,BKN110,0.00,VWS V13.00,2013-05-15 06:45:00,
2013-05-15 02:50:00,42.1,32.7,29.98,SW,228,0.0,0.0,69,0.00,,BKN110,0.00,VWS V13.00,2013-05-15 06:50:00,
2013-05-15 02:56:00,42.3,32.8,29.98,SW,228,0.0,0.0,69,0.00,,BKN110,0.00,VWS V13.00,2013-05-15 06:56:00,
2013-05-15 03:01:00,42.3,33.2,29.98,SW,228,0.0,0.0,70,0.00,,BKN110,0.00,VWS V13.00,2013-05-15 07:01:00,
2013-05-15 03:06:00,42.4,33.4,29.98,SW,228,0.0,0.0,70,0.00,,BKN110,0.00,VWS V13.00,2013-05-15 07:06:00,
2013-05-15 03:11:00,42.6,33.5,29.98,SW,228,0.0,0.0,70,0.00,,BKN110,0.00,VWS V13.00,2013-05-15 07:11:00,
2013-05-15 03:16:00,42.8,33.7,29.98,SW,228,0.0,0.0,70,0.00,,BKN110,0.00,VWS V13.00,2013-05-15 07:16:00,
2013-05-15 03:21:00,43.0,33.9,29.98,SW,228,0.0,0.0,70,0.00,,BKN110,0.00,VWS V13.00,2013-05-15 07:21:00,
2013-05-15 03:26:00,43.2,34.0,29.98,SW,228,0.0,0.0,70,0.00,,BKN110,0.00,VWS V13.00,2013-05-15 07:26:00,
2013-05-15 03:31:00,43.7,34.9,29.98,SW,228,0.0,0.0,71,0.00,,BKN110,0.00,VWS V13.00,2013-05-15 07:31:00,
2013-05-15 03:36:00,43.7,34.9,29.98,SW,228,0.0,0.0,71,0.00,,OVC110,0.00,VWS V13.00,2013-05-15 07:36:00,
2013-05-15 03:41:00,43.7,34.9,29.98,SW,228,0.0,0.0,71,0.00,,OVC110,0.00,VWS V13.00,2013-05-15 07:41:00,
2013-05-15 03:46:00,44.1,35.3,29.98,SW,228,0.0,0.0,71,0.00,,OVC110,0.00,VWS V13.00,2013-05-15 07:46:00,
2013-05-15 03:51:00,44.1,35.3,29.98,SW,228,0.0,0.0,71,0.00,,OVC110,0.00,VWS V13.00,2013-05-15 07:51:00,
2013-05-15 03:56:00,44.2,35.1,29.98,SW,228,0.0,0.0,70,0.00,,OVC110,0.00,VWS V13.00,2013-05-15 07:56:00,
2013-05-15 04:01:00,44.6,35.1,29.98,SW,228,2.7,2.7,69,0.00,,OVC110,0.00,VWS V13.00,2013-05-15 08:01:00,
2013-05-15 04:07:00,45.1,34.8,29.98,SW,228,0.0,2.7,67,0.00,,OVC110,0.00,VWS V13.00,2013-05-15 08:07:00,
2013-05-15 04:12:00,45.3,34.6,29.98,SW,234,0.0,2.7,66,0.00,,OVC110,0.00,VWS V13.00,2013-05-15 08:12:00,
2013-05-15 04:17:00,45.3,34.6,29.98,SW,234,0.0,2.7,66,0.00,,OVC110,0.00,VWS V13.00,2013-05-15 08:17:00,
2013-05-15 04:22:00,45.5,34.4,29.98,SW,234,0.0,2.2,65,0.00,,OVC110,0.00,VWS V13.00,2013-05-15 08:22:00,
2013-05-15 04:27:00,45.7,33.8,29.98,WSW,250,0.0,3.1,63,0.00,,OVC110,0.00,VWS V13.00,2013-05-15 08:27:00,
2013-05-15 04:32:00,45.7,33.8,29.98,WSW,250,0.0,3.1,63,0.00,,OVC110,0.00,VWS V13.00,2013-05-15 08:32:00,
2013-05-15 04:37:00,45.9,33.6,29.98,WSW,250,0.0,3.1,62,0.00,,OVC110,0.00,VWS V13.00,2013-05-15 08:37:00,
2013-05-15 04:42:00,45.9,33.6,29.98,WSW,250,0.0,0.0,62,0.00,,OVC110,0.00,VWS V13.00,2013-05-15 08:42:00,
2013-05-15 04:47:00,45.9,33.6,29.98,WSW,250,0.0,0.0,62,0.00,,OVC110,0.00,VWS V13.00,2013-05-15 08:47:00,
2013-05-15 04:52:00,45.9,33.6,29.98,WSW,250,0.0,0.0,62,0.00,,OVC110,0.00,VWS V13.00,2013-05-15 08:52:00,
2013-05-15 04:57:00,45.9,33.6,29.98,WSW,250,0.0,0.0,62,0.00,,OVC110,0.00,VWS V13.00,2013-05-15 08:57:00,
2013-05-15 05:02:00,45.9,33.6,29.98,WSW,250,0.0,0.0,62,0.00,,OVC110,0.00,VWS V13.00,2013-05-15 09:02:00,
2013-05-15 05:07:00,45.9,33.6,29.98,WSW,255,2.2,3.1,62,0.00,,OVC110,0.00,VWS V13.00,2013-05-15 09:07:00,
2013-05-15 05:12:00,46.4,31.6,29.98,WSW,255,0.0,3.1,56,0.00,,OVC110,0.00,VWS V13.00,2013-05-15 09:12:00,
2013-05-15 05:17:00,46.6,31.3,29.98,WSW,255,0.0,3.1,55,0.00,,OVC110,0.00,VWS V13.00,2013-05-15 09:17:00,
2013-05-15 05:22:00,46.6,31.3,29.98,WSW,255,0.0,0.0,55,0.00,,OVC110,0.00,VWS V13.00,2013-05-15 09:22:00,
2013-05-15 05:27:00,46.6,31.3,29.98,WSW,256,0.0,0.0,55,0.00,,OVC110,0.00,VWS V13.00,2013-05-15 09:27:00,
2013-05-15 05:32:00,46.6,31.3,29.98,WSW,255,0.0,0.0,55,0.00,,OVC110,0.00,VWS V13.00,2013-05-15 09:32:00,
2013-05-15 05:38:00,46.6,31.3,29.98,WSW,256,0.0,0.0,55,0.00,,OVC065,0.00,VWS V13.00,2013-05-15 09:38:00,
2013-05-15 05:43:00,46.6,31.3,29.98,WSW,255,0.0,0.0,55,0.00,,OVC065,0.00,VWS V13.00,2013-05-15 09:43:00,
2013-05-15 05:48:00,46.6,31.3,29.98,WSW,255,0.0,0.0,55,0.00,,OVC065,0.00,VWS V13.00,2013-05-15 09:48:00,
2013-05-15 05:53:00,46.8,31.0,29.98,WSW,255,0.0,2.2,54,0.00,,OVC065,0.00,VWS V13.00,2013-05-15 09:53:00,
2013-05-15 05:58:00,46.8,30.5,29.98,WSW,255,0.0,2.7,53,0.00,,OVC065,0.00,VWS V13.00,2013-05-15 09:58:00,
2013-05-15 06:03:00,46.8,30.5,29.98,WSW,255,0.0,0.0,53,0.00,,OVC065,0.00,VWS V13.00,2013-05-15 10:03:00,
2013-05-15 06:08:00,46.8,30.5,29.98,WSW,255,0.0,0.0,53,0.00,,OVC065,0.00,VWS V13.00,2013-05-15 10:08:00,
2013-05-15 06:13:00,46.8,30.5,29.98,WSW,255,0.0,0.0,53,0.00,,OVC065,0.00,VWS V13.00,2013-05-15 10:13:00,
2013-05-15 06:18:00,46.8,30.5,29.98,WSW,255,0.0,0.0,53,0.00,,OVC065,0.00,VWS V13.00,2013-05-15 10:18:00,
2013-05-15 06:23:00,46.8,30.5,29.98,WSW,255,0.0,0.0,53,0.00,,OVC065,0.00,VWS V13.00,2013-05-15 10:23:00,
2013-05-15 06:28:00,46.8,30.5,29.98,SSE,167,3.6,4.0,53,0.00,,OVC065,0.00,VWS V13.00,2013-05-15 10:28:00,
2013-05-15 06:33:00,46.8,30.5,29.98,South,181,0.0,4.0,53,0.00,,OVC065,0.00,VWS V13.00,2013-05-15 10:33:00,
2013-05-15 06:38:00,46.8,30.5,29.98,SSE,157,2.2,4.9,53,0.00,,OVC080,0.00,VWS V13.00,2013-05-15 10:38:00,
2013-05-15 06:43:00,46.8,30.5,29.98,SSE,157,2.2,3.6,53,0.00,,OVC080,0.00,VWS V13.00,2013-05-15 10:43:00,
2013-05-15 06:48:00,46.8,30.5,29.98,South,183,2.2,3.6,53,0.00,,OVC080,0.00,VWS V13.00,2013-05-15 10:48:00,
2013-05-15 06:54:00,47.5,31.2,29.98,South,183,0.0,3.6,53,0.00,,OVC080,0.00,VWS V13.00,2013-05-15 10:54:00,
2013-05-15 06:59:00,47.7,31.4,29.98,South,183,2.7,3.6,53,0.00,,OVC080,0.00,VWS V13.00,2013-05-15 10:59:00,
2013-05-15 07:04:00,47.8,31.5,29.98,South,183,2.2,3.1,53,0.00,,OVC080,0.00,VWS V13.00,2013-05-15 11:04:00,
2013-05-15 07:09:00,48.0,31.2,29.95,South,183,2.2,4.0,52,0.00,,OVC080,0.00,VWS V13.00,2013-05-15 11:09:00,
2013-05-15 07:15:00,48.2,31.4,29.95,South,183,0.0,4.0,52,0.00,,OVC080,0.00,VWS V13.00,2013-05-15 11:15:00,
2013-05-15 07:20:00,48.6,31.8,29.98,South,183,2.7,4.0,52,0.00,,OVC080,0.00,VWS V13.00,2013-05-15 11:20:00,
2013-05-15 07:25:00,48.9,32.1,29.98,SSE,154,4.0,5.4,52,0.00,,OVC080,0.00,VWS V13.00,2013-05-15 11:25:00,
2013-05-15 07:31:00,49.5,32.6,29.98,SE,133,3.1,5.8,52,0.00,,OVC080,0.00,VWS V13.00,2013-05-15 11:31:00,
2013-05-15 07:36:00,50.0,33.1,29.95,SSE,159,5.4,5.8,52,0.00,,OVC075,0.00,VWS V13.00,2013-05-15 11:36:00,
2013-05-15 07:41:00,49.6,33.2,29.95,SSE,153,3.1,7.6,53,0.00,,OVC075,0.00,VWS V13.00,2013-05-15 11:41:00,
2013-05-15 07:47:00,51.1,34.6,29.95,South,175,3.1,7.6,53,0.00,,OVC075,0.00,VWS V13.00,2013-05-15 11:47:00,
2013-05-15 07:52:00,53.2,36.1,29.95,SSE,168,3.6,7.6,52,0.00,,OVC075,0.00,VWS V13.00,2013-05-15 11:52:00,
2013-05-15 07:57:00,53.6,36.4,29.95,SSW,206,3.1,7.6,52,0.00,,OVC075,0.00,VWS V13.00,2013-05-15 11:57:00,
2013-05-15 08:03:00,54.0,36.3,29.95,South,175,4.9,4.9,51,0.00,,OVC075,0.00,VWS V13.00,2013-05-15 12:03:00,
2013-05-15 08:08:00,54.1,36.4,29.95,South,182,4.0,5.4,51,0.00,,OVC075,0.00,VWS V13.00,2013-05-15 12:08:00,
2013-05-15 08:13:00,54.5,36.8,29.95,SSW,192,4.0,6.3,51,0.00,,OVC075,0.00,VWS V13.00,2013-05-15 12:13:00,
2013-05-15 08:18:00,54.7,36.9,29.95,South,170,4.9,6.3,51,0.00,,OVC075,0.00,VWS V13.00,2013-05-15 12:18:00,
2013-05-15 08:23:00,55.2,37.4,29.95,South,180,3.6,3.6,51,0.00,,OVC075,0.00,VWS V13.00,2013-05-15 12:23:00,
2013-05-15 08:28:00,54.7,36.9,29.95,South,181,5.4,5.4,51,0.00,,OVC075,0.00,VWS V13.00,2013-05-15 12:28:00,
2013-05-15 08:33:00,54.7,36.9,29.95,SW,229,4.9,8.1,51,0.00,,OVC075,0.00,VWS V13.00,2013-05-15 12:33:00,
2013-05-15 08:39:00,54.9,37.1,29.95,South,170,4.0,8.1,51,0.00,,OVC075,0.00,VWS V13.00,2013-05-15 12:39:00,
2013-05-15 08:43:00,55.8,37.9,29.95,SSW,200,4.5,6.3,51,0.00,,OVC075,0.00,VWS V13.00,2013-05-15 12:43:00,
2013-05-15 08:49:00,55.9,38.1,29.95,SE,146,4.5,8.1,51,0.00,,OVC075,0.00,VWS V13.00,2013-05-15 12:49:00,
2013-05-15 08:54:00,56.3,38.4,29.92,SSE,158,5.4,8.1,51,0.00,,OVC075,0.00,VWS V13.00,2013-05-15 12:54:00,
2013-05-15 08:59:00,57.0,38.6,29.92,SSE,151,5.4,8.1,50,0.00,,OVC075,0.00,VWS V13.00,2013-05-15 12:59:00,
2013-05-15 09:05:00,56.8,37.9,29.92,South,187,8.7,11.0,49,0.00,,OVC075,0.00,VWS V13.00,2013-05-15 13:05:00,
2013-05-15 09:10:00,57.4,37.9,29.92,SSE,159,5.4,11.0,48,0.00,,FEW100,0.00,VWS V13.00,2013-05-15 13:10:00,
2013-05-15 09:15:00,57.4,37.9,29.92,South,173,5.8,11.0,48,0.00,,FEW100,0.00,VWS V13.00,2013-05-15 13:15:00,
2013-05-15 09:20:00,57.7,38.2,29.92,SSW,195,4.0,11.0,48,0.00,,FEW100,0.00,VWS V13.00,2013-05-15 13:20:00,
2013-05-15 09:25:00,58.3,38.2,29.92,SSW,198,2.7,5.4,47,0.00,,FEW100,0.00,VWS V13.00,2013-05-15 13:25:00,
2013-05-15 09:31:00,58.1,37.5,29.92,SSE,163,5.4,10.1,46,0.00,,FEW100,0.00,VWS V13.00,2013-05-15 13:31:00,
2013-05-15 09:36:00,58.1,37.5,29.89,SSW,203,5.4,10.1,46,0.00,,SCT085,0.00,VWS V13.00,2013-05-15 13:36:00,
2013-05-15 09:41:00,57.7,37.1,29.89,South,171,5.8,8.7,46,0.00,,SCT085,0.00,VWS V13.00,2013-05-15 13:41:00,
2013-05-15 09:46:00,57.7,37.1,29.89,South,172,5.4,10.1,46,0.00,,SCT085,0.00,VWS V13.00,2013-05-15 13:46:00,
2013-05-15 09:52:00,57.7,37.1,29.89,South,172,6.3,10.1,46,0.00,,SCT085,0.00,VWS V13.00,2013-05-15 13:52:00,
2013-05-15 09:57:00,58.6,37.9,29.89,South,187,2.7,10.1,46,0.00,,SCT085,0.00,VWS V13.00,2013-05-15 13:57:00,
2013-05-15 10:02:00,58.3,37.6,29.89,SSW,208,6.3,7.6,46,0.00,,SCT085,0.00,VWS V13.00,2013-05-15 14:02:00,
2013-05-15 10:07:00,58.3,37.6,29.92,South,172,7.6,7.6,46,0.00,,SCT085,0.00,VWS V13.00,2013-05-15 14:07:00,
2013-05-15 10:13:00,58.3,37.6,29.92,SSE,160,5.8,8.3,46,0.00,,SCT085,0.00,VWS V13.00,2013-05-15 14:13:00,
2013-05-15 10:18:00,58.3,37.6,29.92,SE,139,6.3,8.3,46,0.00,,SCT085,0.00,VWS V13.00,2013-05-15 14:18:00,
2013-05-15 10:23:00,58.3,37.6,29.92,SW,217,3.6,5.4,46,0.00,,SCT085,0.00,VWS V13.00,2013-05-15 14:23:00,
2013-05-15 10:28:00,58.3,37.6,29.92,SSW,201,4.5,5.8,46,0.00,,SCT085,0.00,VWS V13.00,2013-05-15 14:28:00,
2013-05-15 10:33:00,58.3,37.6,29.92,SE,144,5.8,8.1,46,0.00,,SCT085,0.00,VWS V13.00,2013-05-15 14:33:00,
2013-05-15 10:38:00,58.3,37.6,29.92,SSW,194,3.1,8.1,46,0.00,,CLR,0.00,VWS V13.00,2013-05-15 14:38:00,
2013-05-15 10:43:00,58.3,37.6,29.92,SW,218,3.6,5.8,46,0.00,,CLR,0.00,VWS V13.00,2013-05-15 14:43:00,
2013-05-15 10:49:00,58.3,37.6,29.92,South,177,5.4,5.8,46,0.00,,CLR,0.00,VWS V13.00,2013-05-15 14:49:00,
2013-05-15 10:54:00,58.3,37.6,29.92,South,169,3.6,6.3,46,0.00,,CLR,0.00,VWS V13.00,2013-05-15 14:54:00,
2013-05-15 10:59:00,58.3,37.6,29.92,South,178,3.1,6.3,46,0.00,,CLR,0.00,VWS V13.00,2013-05-15 14:59:00,
2013-05-15 11:04:00,58.3,37.6,29.92,SSE,157,4.9,6.3,46,0.00,,CLR,0.00,VWS V13.00,2013-05-15 15:04:00,
2013-05-15 11:10:00,58.3,37.6,29.92,SSE,168,2.7,6.3,46,0.00,,CLR,0.00,VWS V13.00,2013-05-15 15:10:00,
2013-05-15 11:15:00,58.3,37.6,29.92,SSE,165,4.0,6.3,46,0.00,,CLR,0.00,VWS V13.00,2013-05-15 15:15:00,
2013-05-15 11:20:00,58.3,39.2,29.89,SSE,151,4.9,7.6,49,0.00,,CLR,0.00,VWS V13.00,2013-05-15 15:20:00,
2013-05-15 11:25:00,58.3,39.2,29.89,South,169,3.6,6.3,49,0.00,,CLR,0.00,VWS V13.00,2013-05-15 15:25:00,
2013-05-15 11:30:00,58.3,39.2,29.89,SSE,157,6.3,7.6,49,0.00,,CLR,0.00,VWS V13.00,2013-05-15 15:30:00,
2013-05-15 11:35:00,58.3,39.2,29.86,South,180,4.9,7.6,49,0.00,,-RA,0.00,VWS V13.00,2013-05-15 15:35:00,
2013-05-15 11:40:00,58.3,39.2,29.86,SSE,163,0.0,8.7,49,0.00,,-RA,0.00,VWS V13.00,2013-05-15 15:40:00,
2013-05-15 11:47:00,58.3,39.2,29.86,ESE,114,2.7,8.3,49,0.00,,-RA,0.00,VWS V13.00,2013-05-15 15:47:00,
2013-05-15 11:52:00,58.3,39.2,29.89,South,187,4.0,8.3,49,0.00,,-RA,0.00,VWS V13.00,2013-05-15 15:52:00,
2013-05-15 11:57:00,58.3,39.2,29.89,ESE,118,2.7,8.3,49,0.00,,-RA,0.00,VWS V13.00,2013-05-15 15:57:00,
2013-05-15 12:02:00,58.3,39.2,29.89,SE,130,3.1,5.4,49,0.00,,-RA,0.00,VWS V13.00,2013-05-15 16:02:00,
2013-05-15 12:08:00,58.3,39.2,29.86,SE,130,4.0,6.3,49,0.00,,-RA,0.00,VWS V13.00,2013-05-15 16:08:00,
2013-05-15 12:13:00,58.3,39.2,29.86,SSW,209,3.1,8.1,49,0.00,,-RA,0.00,VWS V13.00,2013-05-15 16:13:00,
2013-05-15 12:18:00,58.3,39.2,29.86,ENE,62,4.0,8.1,49,0.00,,-RA,0.00,VWS V13.00,2013-05-15 16:18:00,
2013-05-15 12:24:00,58.3,39.2,29.83,ESE,102,5.4,5.4,49,0.00,,-RA,0.00,VWS V13.00,2013-05-15 16:24:00,
2013-05-15 12:29:00,61.5,43.8,29.83,SE,130,5.8,5.8,52,0.00,,-RA,0.00,VWS V13.00,2013-05-15 16:29:00,
2013-05-15 12:35:00,62.4,44.1,29.83,SSE,147,3.6,8.3,51,0.00,,-RA,0.00,VWS V13.00,2013-05-15 16:35:00,
2013-05-15 12:40:00,63.0,43.5,29.83,ESE,107,2.7,8.3,49,0.00,,OVC060,0.00,VWS V13.00,2013-05-15 16:40:00,
2013-05-15 12:45:00,64.6,44.5,29.83,South,179,3.6,8.7,48,0.00,,OVC060,0.00,VWS V13.00,2013-05-15 16:45:00,
2013-05-15 12:50:00,65.1,43.8,29.83,SE,138,5.4,8.7,46,0.00,,OVC060,0.00,VWS V13.00,2013-05-15 16:50:00,
2013-05-15 12:56:00,65.7,43.8,29.83,South,175,6.3,8.7,45,0.00,,OVC060,0.00,VWS V13.00,2013-05-15 16:56:00,
2013-05-15 13:01:00,66.4,44.4,29.83,South,177,5.8,5.8,45,0.00,,OVC060,0.00,VWS V13.00,2013-05-15 17:01:00,
2013-05-15 13:06:00,67.1,44.5,29.83,SE,136,8.1,10.1,44,0.00,,OVC060,0.00,VWS V13.00,2013-05-15 17:06:00,
2013-05-15 13:11:00,67.6,44.4,29.83,South,180,5.4,10.1,43,0.00,,OVC060,0.00,VWS V13.00,2013-05-15 17:11:00,
2013-05-15 13:16:00,67.1,43.9,29.83,WSW,258,4.9,10.1,43,0.00,,OVC060,0.00,VWS V13.00,2013-05-15 17:16:00,
2013-05-15 13:21:00,66.0,42.9,29.83,WSW,244,4.0,8.1,43,0.00,,OVC060,0.00,VWS V13.00,2013-05-15 17:21:00,
2013-05-15 13:26:00,66.0,43.5,29.83,SE,140,5.8,8.1,44,0.00,,OVC060,0.00,VWS V13.00,2013-05-15 17:26:00,
2013-05-15 13:32:00,65.1,43.3,29.83,South,178,4.0,8.7,45,0.00,,OVC060,0.00,VWS V13.00,2013-05-15 17:32:00,
2013-05-15 13:37:00,64.0,42.9,29.86,SW,231,2.7,8.7,46,0.00,,FEW120,0.00,VWS V13.00,2013-05-15 17:37:00,
2013-05-15 13:43:00,63.5,42.9,29.86,SSW,206,5.8,8.1,47,0.00,,FEW120,0.00,VWS V13.00,2013-05-15 17:43:00,
2013-05-15 13:48:00,63.9,43.8,29.86,South,169,4.0,8.1,48,0.00,,FEW120,0.00,VWS V13.00,2013-05-15 17:48:00,
2013-05-15 13:54:00,63.5,44.0,29.83,SW,215,4.9,8.1,49,0.00,,FEW120,0.00,VWS V13.00,2013-05-15 17:54:00,
2013-05-15 13:59:00,63.5,44.5,29.83,WSW,239,2.7,8.1,50,0.00,,FEW120,0.00,VWS V13.00,2013-05-15 17:59:00,
2013-05-15 14:04:00,63.5,44.5,29.83,SSW,212,2.7,4.0,50,0.00,,FEW120,0.00,VWS V13.00,2013-05-15 18:04:00,
2013-05-15 14:10:00,63.3,44.4,29.83,South,180,5.4,5.4,50,0.00,,FEW120,0.00,VWS V13.00,2013-05-15 18:10:00,
2013-05-15 14:16:00,63.5,45.6,29.83,South,181,4.9,6.3,52,0.00,,FEW120,0.00,VWS V13.00,2013-05-15 18:16:00,
2013-05-15 14:21:00,64.4,46.4,29.80,South,179,3.6,5.8,52,0.00,,FEW120,0.00,VWS V13.00,2013-05-15 18:21:00,
2013-05-15 14:27:00,66.0,47.4,29.80,South,169,3.6,7.6,51,0.00,,FEW120,0.00,VWS V13.00,2013-05-15 18:27:00,
2013-05-15 14:32:00,66.2,47.0,29.80,SE,136,4.0,8.3,50,0.00,,FEW120,0.00,VWS V13.00,2013-05-15 18:32:00,
2013-05-15 14:37:00,66.2,46.5,29.78,South,182,6.3,8.7,49,0.00,,BKN110,0.00,VWS V13.00,2013-05-15 18:37:00,
2013-05-15 14:43:00,67.1,46.2,29.78,SSE,150,8.3,9.2,47,0.00,,BKN110,0.00,VWS V13.00,2013-05-15 18:43:00,
2013-05-15 14:48:00,67.1,46.2,29.78,SE,144,7.6,10.1,47,0.00,,BKN110,0.00,VWS V13.00,2013-05-15 18:48:00,
2013-05-15 14:53:00,65.8,45.1,29.75,SSE,153,6.3,12.3,47,0.00,,BKN110,0.00,VWS V13.00,2013-05-15 18:53:00,
2013-05-15 14:58:00,65.5,44.7,29.75,South,176,8.3,12.3,47,0.00,,BKN110,0.00,VWS V13.00,2013-05-15 18:58:00,
2013-05-15 15:04:00,65.7,45.5,29.75,South,182,6.3,6.3,48,0.00,,BKN110,0.00,VWS V13.00,2013-05-15 19:04:00,
2013-05-15 15:09:00,67.1,46.8,29.75,SSE,150,8.3,8.3,48,0.00,,BKN110,0.00,VWS V13.00,2013-05-15 19:09:00,
2013-05-15 15:14:00,69.3,48.2,29.75,SW,225,5.4,8.3,47,0.00,,BKN110,0.00,VWS V13.00,2013-05-15 19:14:00,
2013-05-15 15:19:00,69.6,48.0,29.75,SSE,166,5.4,10.1,46,0.00,,BKN110,0.00,VWS V13.00,2013-05-15 19:19:00,
2013-05-15 15:24:00,69.4,47.2,29.75,South,187,4.9,10.5,45,0.00,,BKN110,0.00,VWS V13.00,2013-05-15 19:24:00,
2013-05-15 15:29:00,69.4,47.2,29.75,SSE,147,4.0,10.5,45,0.00,,BKN110,0.00,VWS V13.00,2013-05-15 19:29:00,
2013-05-15 15:34:00,69.4,47.2,29.75,SSE,166,10.1,13.2,45,0.00,,BKN110,0.00,VWS V13.00,2013-05-15 19:34:00,
2013-05-15 15:40:00,69.8,47.5,29.72,South,175,8.1,13.2,45,0.00,,SCT120,0.00,VWS V13.00,2013-05-15 19:40:00,
2013-05-15 15:45:00,69.6,47.4,29.72,SSW,192,5.8,9.6,45,0.00,,SCT120,0.00,VWS V13.00,2013-05-15 19:45:00,
2013-05-15 15:50:00,70.0,47.7,29.72,SSE,165,6.3,10.5,45,0.00,,SCT120,0.00,VWS V13.00,2013-05-15 19:50:00,
2013-05-15 15:56:00,70.3,48.0,29.72,West,277,5.4,10.5,45,0.00,,SCT120,0.00,VWS V13.00,2013-05-15 19:56:00,
2013-05-15 16:01:00,70.3,48.0,29.72,SSW,210,6.3,6.7,45,0.00,,SCT120,0.00,VWS V13.00,2013-05-15 20:01:00,
2013-05-15 16:06:00,70.9,48.5,29.72,SSW,207,7.6,7.6,45,0.00,,SCT120,0.00,VWS V13.00,2013-05-15 20:06:00,
2013-05-15 16:11:00,71.2,48.8,29.72,SSW,206,6.3,8.7,45,0.00,,SCT120,0.00,VWS V13.00,2013-05-15 20:11:00,
2013-05-15 16:16:00,71.6,48.6,29.72,WSW,251,5.8,8.7,44,0.00,,SCT120,0.00,VWS V13.00,2013-05-15 20:16:00,
2013-05-15 16:21:00,71.8,48.7,29.69,SSE,162,9.6,9.6,44,0.00,,SCT120,0.00,VWS V13.00,2013-05-15 20:21:00,
2013-05-15 16:26:00,71.8,48.7,29.69,South,179,4.0,11.0,44,0.00,,SCT120,0.00,VWS V13.00,2013-05-15 20:26:00,
2013-05-15 16:32:00,71.8,48.7,29.69,SW,216,5.8,11.0,44,0.00,,SCT120,0.00,VWS V13.00,2013-05-15 20:32:00,
2013-05-15 16:39:00,71.8,48.7,29.72,SSE,166,7.6,11.0,44,0.00,,CLR,0.00,VWS V13.00,2013-05-15 20:39:00,
2013-05-15 16:44:00,71.8,48.7,29.72,South,181,4.0,8.3,44,0.00,,CLR,0.00,VWS V13.00,2013-05-15 20:44:00,
2013-05-15 16:49:00,71.8,48.7,29.72,SSW,205,4.0,8.3,44,0.00,,CLR,0.00,VWS V13.00,2013-05-15 20:49:00,
2013-05-15 16:54:00,71.8,48.7,29.69,SSW,197,4.9,8.3,44,0.00,,CLR,0.00,VWS V13.00,2013-05-15 20:54:00,
2013-05-15 16:59:00,71.8,48.7,29.69,WSW,239,3.1,8.3,44,0.00,,CLR,0.00,VWS V13.00,2013-05-15 20:59:00,
2013-05-15 17:04:00,71.8,48.7,29.69,West,263,2.7,6.3,44,0.00,,CLR,0.00,VWS V13.00,2013-05-15 21:04:00,
2013-05-15 17:09:00,71.8,48.7,29.69,WSW,249,2.7,6.3,44,0.00,,CLR,0.00,VWS V13.00,2013-05-15 21:09:00,
2013-05-15 17:15:00,71.8,48.7,29.69,SSW,206,3.6,6.3,44,0.00,,CLR,0.00,VWS V13.00,2013-05-15 21:15:00,
2013-05-15 17:20:00,71.8,48.7,29.69,WSW,246,5.4,7.6,44,0.00,,CLR,0.00,VWS V13.00,2013-05-15 21:20:00,
2013-05-15 17:25:00,71.8,48.7,29.69,WSW,239,2.7,7.2,44,0.00,,CLR,0.00,VWS V13.00,2013-05-15 21:25:00,
2013-05-15 17:30:00,72.3,49.8,29.69,SSE,167,4.0,8.3,45,0.00,,CLR,0.00,VWS V13.00,2013-05-15 21:30:00,
2013-05-15 17:35:00,72.3,49.8,29.69,SW,224,3.6,8.3,45,0.00,,FEW045,0.00,VWS V13.00,2013-05-15 21:35:00,
2013-05-15 17:41:00,72.3,49.8,29.69,South,182,4.0,7.6,45,0.00,,FEW045,0.00,VWS V13.00,2013-05-15 21:41:00,
2013-05-15 17:46:00,72.3,49.8,29.69,WSW,245,7.6,7.6,45,0.00,,FEW045,0.00,VWS V13.00,2013-05-15 21:46:00,
2013-05-15 17:51:00,72.3,49.8,29.69,SSW,206,5.4,7.6,45,0.00,,FEW045,0.00,VWS V13.00,2013-05-15 21:51:00,
2013-05-15 17:56:00,72.3,49.8,29.69,West,281,2.7,7.6,45,0.00,,FEW045,0.00,VWS V13.00,2013-05-15 21:56:00,
2013-05-15 18:01:00,72.3,49.8,29.69,SW,216,5.4,5.4,45,0.00,,FEW045,0.00,VWS V13.00,2013-05-15 22:01:00,
2013-05-15 18:06:00,72.3,49.8,29.69,SW,216,3.6,6.3,45,0.00,,FEW045,0.00,VWS V13.00,2013-05-15 22:06:00,
2013-05-15 18:11:00,71.4,49.6,29.69,SSW,195,4.9,7.6,46,0.00,,FEW045,0.00,VWS V13.00,2013-05-15 22:11:00,
2013-05-15 18:17:00,71.2,50.0,29.69,SSW,194,3.1,8.3,47,0.00,,FEW045,0.00,VWS V13.00,2013-05-15 22:17:00,
2013-05-15 18:22:00,71.2,50.0,29.69,WSW,244,5.4,8.1,47,0.00,,FEW045,0.00,VWS V13.00,2013-05-15 22:22:00,
2013-05-15 18:27:00,71.2,50.0,29.69,SW,224,5.8,8.1,47,0.00,,FEW045,0.00,VWS V13.00,2013-05-15 22:27:00,
2013-05-15 18:33:00,70.9,50.2,29.69,SSW,192,4.9,8.1,48,0.00,,FEW045,0.00,VWS V13.00,2013-05-15 22:33:00,
2013-05-15 18:38:00,70.5,49.9,29.69,SSW,211,4.9,8.1,48,0.00,,CLR,0.00,VWS V13.00,2013-05-15 22:38:00,
2013-05-15 18:43:00,70.5,49.9,29.69,SSW,206,4.0,5.8,48,0.00,,CLR,0.00,VWS V13.00,2013-05-15 22:43:00,
2013-05-15 18:48:00,70.5,49.9,29.69,SSW,192,7.6,7.6,48,0.00,,CLR,0.00,VWS V13.00,2013-05-15 22:48:00,
2013-05-15 18:53:00,70.5,49.9,29.69,SSW,213,4.0,8.3,48,0.00,,CLR,0.00,VWS V13.00,2013-05-15 22:53:00,
2013-05-15 18:58:00,69.8,50.3,29.69,South,185,5.8,8.3,50,0.00,,CLR,0.00,VWS V13.00,2013-05-15 22:58:00,
2013-05-15 19:03:00,69.6,50.7,29.69,SSW,204,3.1,5.4,51,0.00,,CLR,0.00,VWS V13.00,2013-05-15 23:03:00,
2013-05-15 19:08:00,69.3,50.4,29.66,SW,222,5.4,8.1,51,0.00,,CLR,0.00,VWS V13.00,2013-05-15 23:08:00,
2013-05-15 19:14:00,69.1,50.7,29.66,SW,223,3.6,8.1,52,0.00,,CLR,0.00,VWS V13.00,2013-05-15 23:14:00,
2013-05-15 19:19:00,68.7,50.9,29.66,SSW,195,4.0,8.1,53,0.00,,CLR,0.00,VWS V13.00,2013-05-15 23:19:00,
2013-05-15 19:24:00,68.5,50.8,29.66,South,187,4.0,5.8,53,0.00,,CLR,0.00,VWS V13.00,2013-05-15 23:24:00,
2013-05-15 19:29:00,68.4,51.1,29.66,SSW,193,3.6,6.3,54,0.00,,CLR,0.00,VWS V13.00,2013-05-15 23:29:00,
2013-05-15 19:35:00,68.0,51.2,29.66,South,188,4.9,6.3,55,0.00,,CLR,0.00,VWS V13.00,2013-05-15 23:35:00,
2013-05-15 19:40:00,67.8,51.6,29.66,South,179,4.0,4.0,56,0.00,,CLR,0.00,VWS V13.00,2013-05-15 23:40:00,
2013-05-15 19:45:00,67.6,51.4,29.66,SW,217,4.0,5.8,56,0.00,,CLR,0.00,VWS V13.00,2013-05-15 23:45:00,
2013-05-15 19:51:00,67.5,51.7,29.69,SSW,201,2.7,5.8,57,0.00,,CLR,0.00,VWS V13.00,2013-05-15 23:51:00,
2013-05-15 19:57:00,67.1,51.8,29.69,SSW,205,4.0,5.8,58,0.00,,CLR,0.00,VWS V13.00,2013-05-15 23:57:00,
2013-05-15 20:02:00,66.7,52.0,29.69,South,189,3.6,4.0,59,0.00,,CLR,0.00,VWS V13.00,2013-05-16 00:02:00,
2013-05-15 20:10:00,66.6,51.8,29.69,SSW,207,2.7,5.4,59,0.00,,CLR,0.00,VWS V13.00,2013-05-16 00:10:00,
2013-05-15 20:15:00,66.2,51.9,29.69,South,189,4.0,5.4,60,0.00,,CLR,0.00,VWS V13.00,2013-05-16 00:15:00,
2013-05-15 20:21:00,66.2,51.9,29.69,SW,214,4.0,4.0,60,0.00,,CLR,0.00,VWS V13.00,2013-05-16 00:21:00,
2013-05-15 20:26:00,66.0,52.2,29.69,SW,217,2.7,4.9,61,0.00,,CLR,0.00,VWS V13.00,2013-05-16 00:26:00,
2013-05-15 20:31:00,65.8,52.0,29.69,SSW,211,3.1,4.9,61,0.00,,CLR,0.00,VWS V13.00,2013-05-16 00:31:00,
2013-05-15 20:36:00,65.5,52.1,29.69,SSW,211,2.7,4.9,62,0.00,,CLR,0.00,VWS V13.00,2013-05-16 00:36:00,
2013-05-15 20:42:00,65.3,52.0,29.69,SSW,212,2.2,3.1,62,0.00,,CLR,0.00,VWS V13.00,2013-05-16 00:42:00,
2013-05-15 20:47:00,65.1,52.2,29.69,SSW,204,2.7,3.1,63,0.00,,CLR,0.00,VWS V13.00,2013-05-16 00:47:00,
2013-05-15 20:52:00,64.8,51.9,29.69,SSW,204,2.7,3.1,63,0.00,,CLR,0.00,VWS V13.00,2013-05-16 00:52:00,
2013-05-15 20:57:00,64.6,52.1,29.69,SSW,203,2.7,4.0,64,0.00,,CLR,0.00,VWS V13.00,2013-05-16 00:57:00,
2013-05-15 21:03:00,64.6,52.1,29.69,SSW,205,3.1,3.1,64,0.00,,CLR,0.00,VWS V13.00,2013-05-16 01:03:00,
2013-05-15 21:08:00,64.2,51.8,29.69,SSW,204,0.0,3.1,64,0.00,,CLR,0.00,VWS V13.00,2013-05-16 01:08:00,
2013-05-15 21:13:00,64.2,52.2,29.69,SSW,205,0.0,3.1,65,0.00,,CLR,0.00,VWS V13.00,2013-05-16 01:13:00,
2013-05-15 21:18:00,64.0,52.0,29.69,WSW,258,0.0,4.0,65,0.00,,CLR,0.00,VWS V13.00,2013-05-16 01:18:00,
2013-05-15 21:23:00,63.9,51.9,29.69,SW,219,2.7,4.9,65,0.00,,CLR,0.00,VWS V13.00,2013-05-16 01:23:00,
2013-05-15 21:29:00,63.9,52.3,29.69,SW,221,2.2,4.9,66,0.00,,CLR,0.00,VWS V13.00,2013-05-16 01:29:00,
2013-05-15 21:35:00,63.9,52.3,29.69,SW,232,4.0,4.9,66,0.00,,CLR,0.00,VWS V13.00,2013-05-16 01:35:00,
2013-05-15 21:40:00,63.9,52.3,29.69,SW,217,3.1,4.9,66,0.00,,-RA,0.00,VWS V13.00,2013-05-16 01:40:00,
2013-05-15 21:45:00,63.9,52.3,29.69,SW,221,4.0,5.8,66,0.00,,-RA,0.00,VWS V13.00,2013-05-16 01:45:00,
2013-05-15 21:50:00,63.9,52.7,29.72,North,1,4.0,5.8,67,0.00,,-RA,0.00,VWS V13.00,2013-05-16 01:50:00,
2013-05-15 21:55:00,64.0,52.9,29.72,SSW,212,3.6,5.8,67,0.00,,-RA,0.00,VWS V13.00,2013-05-16 01:55:00,
2013-05-15 22:00:00,63.9,52.7,29.72,SSW,193,0.0,0.0,67,0.00,,-RA,0.00,VWS V13.00,2013-05-16 02:00:00,
2013-05-15 22:06:00,63.7,52.5,29.72,SSW,192,0.0,3.6,67,0.00,,-RA,0.00,VWS V13.00,2013-05-16 02:06:00,
2013-05-15 22:12:00,63.5,52.8,29.72,South,185,4.0,4.9,68,0.00,,-RA,0.00,VWS V13.00,2013-05-16 02:12:00,
2013-05-15 22:17:00,63.3,53.0,29.72,WSW,254,2.2,4.9,69,0.00,,-RA,0.00,VWS V13.00,2013-05-16 02:17:00,
2013-05-15 22:22:00,62.8,53.2,29.72,West,279,2.7,3.1,71,0.00,,-RA,0.00,VWS V13.00,2013-05-16 02:22:00,
2013-05-15 22:28:00,62.4,53.3,29.72,West,279,0.0,3.1,72,0.00,,-RA,0.00,VWS V13.00,2013-05-16 02:28:00,
2013-05-15 22:33:00,62.2,53.5,29.72,West,279,0.0,3.1,73,0.00,,-RA,0.00,VWS V13.00,2013-05-16 02:33:00,
2013-05-15 22:38:00,62.2,53.9,29.72,West,277,0.0,3.1,74,0.00,,CLR,0.00,VWS V13.00,2013-05-16 02:38:00,
2013-05-15 22:43:00,61.7,53.7,29.72,West,277,0.0,0.0,75,0.00,,CLR,0.00,VWS V13.00,2013-05-16 02:43:00,
2013-05-15 22:48:00,61.7,53.7,29.72,West,277,0.0,0.0,75,0.00,,CLR,0.00,VWS V13.00,2013-05-16 02:48:00,
2013-05-15 22:54:00,61.3,53.7,29.72,West,277,0.0,3.1,76,0.00,,CLR,0.00,VWS V13.00,2013-05-16 02:54:00,
2013-05-15 22:59:00,61.2,53.9,29.72,West,277,2.2,3.1,77,0.00,,CLR,0.00,VWS V13.00,2013-05-16 02:59:00,
2013-05-15 23:04:00,61.0,53.7,29.72,West,277,0.0,3.6,77,0.00,,CLR,0.00,VWS V13.00,2013-05-16 03:04:00,
2013-05-15 23:10:00,61.0,54.1,29.72,WNW,286,0.0,3.6,78,0.00,,CLR,0.00,VWS V13.00,2013-05-16 03:10:00,
2013-05-15 23:15:00,60.8,53.9,29.72,WNW,286,0.0,3.6,78,0.00,,CLR,0.00,VWS V13.00,2013-05-16 03:15:00,
2013-05-15 23:20:00,60.6,54.1,29.72,WNW,286,0.0,3.6,79,0.00,,CLR,0.00,VWS V13.00,2013-05-16 03:20:00,
2013-05-15 23:26:00,60.4,53.9,29.72,WNW,286,2.7,2.7,79,0.00,,CLR,0.00,VWS V13.00,2013-05-16 03:26:00,
2013-05-15 23:31:00,60.3,53.7,29.72,WNW,286,0.0,3.1,79,0.00,,CLR,0.00,VWS V13.00,2013-05-16 03:31:00,
2013-05-15 23:36:00,60.1,53.9,29.72,West,276,2.2,3.6,80,0.00,,CLR,0.00,VWS V13.00,2013-05-16 03:36:00,
2013-05-15 23:42:00,60.1,53.9,29.72,West,276,0.0,3.6,80,0.00,,CLR,0.00,VWS V13.00,2013-05-16 03:42:00,
2013-05-15 23:47:00,59.9,53.7,29.72,WSW,254,2.7,5.4,80,0.00,,CLR,0.00,VWS V13.00,2013-05-16 03:47:00,
2013-05-15 23:52:00,59.9,53.7,29.72,WSW,254,2.7,5.4,80,0.00,,CLR,0.00,VWS V13.00,2013-05-16 03:52:00,
2013-05-15 23:57:00,59.9,54.1,29.72,West,270,0.0,5.4,81,0.00,,CLR,0.00,VWS V13.00,2013-05-16 03:57:00,